カタログに戻る

DELTA 1 DEB

運用中SSO
NORAD 3051·DEBRIS·🇺🇸 United States

打ち上げ Nov 10, 1967 から Vandenberg Space Force Base

Loading…

次のパス (今後24時間)

TLE

最新Source: Space-Track

元期: Sep 14, 2026, 08:53 UTC

1 03051U 67114C   26257.37034112 -.00000034  00000-0  48436-4 0  9998
2 03051 101.1748 226.5761 0089251 299.6843 218.5281 12.62295914710510

AllMySatでDELTA 1 DEBをリアルタイム追跡

Download on the App Store